10.05.2024;20:00;105
10.05.2024;19:00;109
10.05.2024;18:00;110
10.05.2024;17:00;107
10.05.2024;16:00;106
10.05.2024;15:00;105
10.05.2024;14:00;102
10.05.2024;13:00;100
10.05.2024;12:00;100
10.05.2024;11:00;97
10.05.2024;10:00;43
10.05.2024;09:00;14
10.05.2024;08:00;3
10.05.2024;07:00;3
10.05.2024;06:00;4
10.05.2024;05:00;8
10.05.2024;04:00;11
10.05.2024;03:00;18
10.05.2024;02:00;24
10.05.2024;01:00;35
10.05.2024;00:00;43
09.05.2024;23:00;47
09.05.2024;22:00;69
09.05.2024;21:00;94
09.05.2024;20:00;103
09.05.2024;19:00;104
09.05.2024;18:00;104
09.05.2024;17:00;104
09.05.2024;16:00;104
09.05.2024;15:00;104
09.05.2024;14:00;104
09.05.2024;13:00;102
09.05.2024;12:00;96
09.05.2024;11:00;99
09.05.2024;10:00;73
09.05.2024;09:00;24
09.05.2024;08:00;5
09.05.2024;07:00;1
09.05.2024;06:00;1
09.05.2024;05:00;1
09.05.2024;04:00;2
09.05.2024;03:00;4
09.05.2024;02:00;6
09.05.2024;01:00;11
09.05.2024;00:00;13
08.05.2024;23:00;23
08.05.2024;22:00;35
08.05.2024;21:00;69
